Other Surface Observations
Issued by NWS

Home | Current Version | Previous Version | Text Only | Print | Product List | Glossary On
Versions: 1 2 3 4 5 6 7 8 9 10 11 12 13 14 15 16 17 18 19 20 21 22 23 24 25 26 27 28 29 30 31 32 33 34 35 36 37 38 39 40 41 42 43 44 45 46 47 48 49 50
017
SXUS52 KTAE 231918
OSOTAE
OSOTAE
North Florida/South Alabama/Southwest Georgia Weather Roundup
National Weather Service Tallahassee Florida
300 PM EDT THU MAR 23 2017

Note: "fair" indicates few or no clouds below 12,000 feet with no
significant weather and/or obstructions to visibility.

!FLZ017-115-028-034-025-232000
...North Florida...

CITY           SKY/WX    TMP DP  RH WIND       PRES   REMARKS
TALLAHASSEE    CLOUDY    74  59  59 E13       30.29F
APALACHICOLA   CLOUDY    74  63  68 E13G21    30.27S
PERRY          CLOUDY    74  60  61 E9        30.30F
CROSS CITY     MOSUNNY   79  61  53 E13       30.27F
JACKSONVILLE   CLOUDY    67  56  67 NE20G26   30.37S
$$

!FLZ112-006-005-002-011-232000
...Florida Panhandle...

CITY           SKY/WX    TMP DP  RH WIND       PRES   REMARKS
MARIANNA       CLOUDY    74  59  59 E14       30.29F
BONIFAY        CLOUDY    76  60  57 E10       30.29
PANAMA CITY NW CLOUDY    76  60  57 E9        30.25F
TYNDALL AFB    PTSUNNY   77  63  61 E7        30.25F
TYND DRONE APT MOCLDY    75  64  70 E10G20    30.25F
DE FUNIAK SPR  CLOUDY    77  59  53 E9        30.27F
EGLIN AFB      MOSUNNY   77  61  59 SE8       30.25F
DESTIN         MOSUNNY   75  64  68 S8        30.25F
HURLBURT       PTSUNNY   75  59  57 SE13      30.24F
CRESTVIEW      MOSUNNY   82  57  42 VRB6      30.25F
PENSACOLA      CLOUDY    74  61  63 SE15      30.26F
$$

!ALZ063-066-232000
...South Alabama...

CITY           SKY/WX    TMP DP  RH WIND       PRES   REMARKS
DOTHAN         CLOUDY    72  58  61 E13       30.34F
OZARK CAIRNS   CLOUDY    73  57  57 E10G21    30.29S
FT RUCKER HELI CLOUDY    73  57  58 E8        30.29F
RUCKER HELI 3  CLOUDY    73  56  57 SE14      30.28F
RUCKER HELI 2  CLOUDY    72  57  58 E15       30.29F
FLORALA APT    MOSUNNY   78  58  49 E8        30.28F
ANDALUSIA        N/A     79  57  46 SE8       30.26F
TROY           PTSUNNY   72  56  57 E15       30.30F
EUFALA         CLOUDY    70  54  56 E9G18     30.33F
MOBILE         MOSUNNY   80  60  50 SE9       30.23F
$$

!GAZ120>161-232000
...Southwest and South Central Georgia...

CITY           SKY/WX    TMP DP  RH WIND       PRES   REMARKS
THOMASVILLE    CLOUDY    70  59  68 E12G20    30.35S
BAINBRIDGE     CLOUDY    72  55  56 E10       30.32S
MOODY AFB      CLOUDY    68  53  59 E13       30.34F
VALDOSTA       CLOUDY    68  55  63 E16G22    30.35S
MOULTRIE       CLOUDY    68  54  60 E7        30.36S
BLAKELY        CLOUDY    72  55  56 E10       30.33F
ALBANY         CLOUDY    67  53  61 E13       30.38F
TIFTON         CLOUDY    65  53  64 E8G16     30.37S
FITZGERALD     CLOUDY    66  53  62 E12       30.41F
CORDELE        CLOUDY    67  49  51 E12G17    30.40F
AMERICUS       CLOUDY    63  45  51 E10G18    30.41S
HOMERVILLE     CLOUDY    68  55  64 E14G21    30.38S
$$

!GMZ750-755-770-775-232000
...Coastal and Buoy Obs...

STATION/POSITION TIME  TEMP    WIND        PRES    VSBY  WAVE
                       AIR SEA DIR/SP/G                  HT/PER
                 (UTC) (F)     (DEG/KT/KT) (MB)    (MI)  (FT/S)
KEATON BEACH     1900   74      50/ 10/ 14 1024.8F
CEDAR KEY        1900   74      90/ 12/ 13 1024.5F
C TOWER          1900   67      80/ 16/ 17 1025.2F
APALACHICOLA BUO 1850   69 68   80/ 14/ 17 1023.7F         3/ 5
PANAMA CITY BUOY 1850   71 72              1023.7F         4/ 5
MOBILE BUOY      1900   72 73   90/ 14/ 16 1022.8
ORANGE BCH AL BU 1850   68 69   90/ 14/ 17 1023.6F         3/ 6
$$




USA.gov is the U.S. government's official web portal to all federal, state and local government web resources and services.